�N����,����,�~����,�C��,���x,�C��,����,���ϕ���,�ő�u�ԕ���,�ő厞����,���˗�,�I�_���x,�n�����x,�ő啗���N��,DTYPE
"23/12/11","00:10",0.0,9.7,90.7,1017.5,287.9,1.1,1.7,275.2,0.00,8.3,10.7,"00:09:28",1
"23/12/11","00:20",0.0,9.5,91.1,1017.5,282.0,1.0,2.5,332.1,0.00,8.2,10.9,"00:10:48",1
"23/12/11","00:30",0.0,9.7,91.4,1017.8,288.6,1.0,1.8,264.5,0.00,8.4,10.8,"00:24:18",1
"23/12/11","00:40",0.0,9.7,91.8,1017.5,279.9,1.2,1.7,262.8,0.00,8.5,10.8,"00:34:48",1
"23/12/11","00:50",0.0,9.9,92.2,1018.0,296.7,1.8,2.9,311.6,0.00,8.7,10.9,"00:43:52",1
"23/12/11","01:00",0.0,10.0,92.6,1018.0,295.2,1.6,2.7,317.1,0.00,8.9,10.8,"00:55:36",1
"23/12/11","01:10",0.0,10.0,92.8,1017.8,307.7,2.0,2.5,312.6,0.00,8.9,10.7,"01:02:00",1
"23/12/11","01:20",0.0,9.9,93.0,1017.8,297.9,1.8,2.6,315.6,0.00,8.9,10.4,"01:10:02",1
"23/12/11","01:30",0.0,10.2,93.4,1018.2,294.0,2.0,2.6,311.9,0.00,9.2,10.6,"01:29:12",1
"23/12/11","01:40",0.0,10.6,93.6,1018.5,309.5,2.1,2.8,324.7,0.00,9.7,10.7,"01:36:02",1
"23/12/11","01:50",0.0,10.8,93.6,1018.2,304.2,2.1,4.4,323.4,0.00,9.9,10.4,"01:45:48",1
"23/12/11","02:00",0.0,11.0,93.5,1018.2,300.8,1.8,3.2,326.3,0.00,10.0,10.7,"01:51:46",1
"23/12/11","02:10",0.0,11.1,93.3,1018.7,293.9,2.2,4.9,325.6,0.00,10.1,10.6,"02:09:04",1
"23/12/11","02:20",0.0,12.1,91.9,1019.0,311.8,2.5,4.1,310.1,0.00,10.9,10.6,"02:11:50",1
"23/12/11","02:30",0.0,12.5,90.3,1019.2,309.7,2.5,3.6,325.9,0.00,11.0,10.4,"02:20:08",1
"23/12/11","02:40",0.0,12.9,88.0,1018.7,316.6,2.7,4.2,324.1,0.00,11.0,10.5,"02:38:36",1
"23/12/11","02:50",0.0,13.0,85.3,1018.7,315.3,2.5,3.2,315.8,0.00,10.6,10.5,"02:44:10",1
"23/12/11","03:00",0.0,13.0,83.6,1019.0,310.7,2.6,4.0,331.3,0.00,10.3,10.4,"02:58:22",1
"23/12/11","03:10",0.0,13.0,82.5,1018.7,301.1,2.5,4.1,320.1,0.00,10.1,10.6,"03:05:34",1
"23/12/11","03:20",0.0,13.1,81.6,1018.7,305.6,2.5,3.6,312.9,0.00,10.1,10.5,"03:12:40",1
"23/12/11","03:30",0.0,13.0,81.1,1019.0,298.9,2.5,3.9,305.8,0.00,9.9,10.6,"03:27:14",1
"23/12/11","03:40",0.0,13.1,80.7,1018.7,309.2,1.8,3.6,300.3,0.00,9.9,10.6,"03:31:26",1
"23/12/11","03:50",0.0,12.9,80.7,1018.7,306.7,1.8,3.1,297.7,0.00,9.7,10.6,"03:47:06",1
"23/12/11","04:00",0.0,12.9,80.8,1018.5,301.0,2.1,3.2,315.7,0.00,9.7,10.8,"03:57:14",1
"23/12/11","04:10",0.0,12.9,80.6,1018.7,295.6,2.0,3.4,304.3,0.00,9.7,10.6,"04:00:08",1
"23/12/11","04:20",0.0,12.9,80.4,1019.0,319.8,2.7,5.4,322.6,0.00,9.7,10.5,"04:19:30",1
"23/12/11","04:30",0.0,13.0,79.8,1019.0,310.2,2.2,3.5,325.9,0.00,9.6,10.7,"04:23:04",1
"23/12/11","04:40",0.0,12.9,79.6,1018.5,306.4,2.0,3.9,310.6,0.00,9.5,10.4,"04:30:08",1
"23/12/11","04:50",0.0,12.8,79.7,1018.2,318.3,2.0,3.6,312.0,0.00,9.4,10.6,"04:41:18",1
"23/12/11","05:00",0.0,12.7,79.9,1018.5,318.7,1.7,3.5,312.7,0.00,9.4,10.7,"04:54:18",1
"23/12/11","05:10",0.0,12.7,80.1,1018.7,326.0,2.2,5.1,326.5,0.00,9.4,10.5,"05:06:48",1
"23/12/11","05:20",0.0,12.7,80.1,1018.7,315.3,2.0,3.5,311.2,0.00,9.4,10.5,"05:11:36",1
"23/12/11","05:30",0.0,12.6,80.2,1018.7,324.2,2.0,4.1,358.5,0.00,9.3,10.6,"05:21:20",1
"23/12/11","05:40",0.0,12.6,80.3,1019.0,316.4,2.0,2.9,311.6,0.00,9.3,10.7,"05:36:10",1
"23/12/11","05:50",0.0,12.5,80.3,1019.0,290.4,1.5,2.6,324.7,0.00,9.2,10.3,"05:47:44",1
"23/12/11","06:00",0.0,12.5,80.3,1019.0,312.6,1.5,2.7,347.1,0.00,9.2,10.7,"05:54:52",1
"23/12/11","06:10",0.0,12.3,80.4,1019.7,310.0,1.3,2.0,300.4,0.00,9.1,10.8,"06:03:30",1
"23/12/11","06:20",0.0,12.2,80.7,1019.2,314.6,0.7,1.9,343.6,0.00,9.0,10.7,"06:10:20",1
"23/12/11","06:30",0.0,12.1,81.0,1019.2,310.4,2.1,2.6,323.3,0.00,9.0,10.7,"06:25:10",1
"23/12/11","06:40",0.0,12.0,81.3,1019.2,308.3,1.6,2.2,308.0,0.00,8.9,10.5,"06:30:18",1
"23/12/11","06:50",0.0,11.6,81.7,1018.7,301.6,0.7,1.4,311.3,0.00,8.6,10.7,"06:48:48",1
"23/12/11","07:00",0.0,11.4,82.3,1018.7,309.3,1.0,2.0,304.8,0.00,8.5,10.7,"06:58:28",1
"23/12/11","07:10",0.0,11.3,83.2,1018.5,307.1,1.1,2.1,326.3,0.00,8.6,10.6,"07:00:52",1
"23/12/11","07:20",0.0,11.5,83.7,1018.5,323.6,1.6,2.8,290.9,0.00,8.9,10.7,"07:17:44",1
"23/12/11","07:30",0.0,11.9,83.2,1019.0,327.1,2.2,3.7,312.6,0.00,9.2,10.5,"07:26:04",1
"23/12/11","07:40",0.0,12.1,82.7,1018.7,325.2,2.2,5.1,333.9,0.00,9.3,10.6,"07:35:44",1
"23/12/11","07:50",0.0,12.3,81.7,1018.7,323.6,2.1,3.6,344.6,0.01,9.3,10.7,"07:42:06",1
"23/12/11","08:00",0.0,12.5,80.6,1018.7,325.4,1.8,3.4,320.0,0.03,9.3,10.7,"07:56:22",1
"23/12/11","08:10",0.0,12.6,79.6,1018.7,323.5,2.1,4.4,319.7,0.03,9.2,10.7,"08:04:36",1
"23/12/11","08:20",0.0,12.7,79.2,1019.2,324.4,1.7,3.4,342.8,0.04,9.2,10.5,"08:14:04",1
"23/12/11","08:30",0.0,12.8,78.8,1019.4,318.6,1.8,3.4,341.8,0.06,9.3,10.7,"08:22:08",1
"23/12/11","08:40",0.0,13.0,79.0,1019.2,319.8,2.2,4.2,322.5,0.11,9.5,10.6,"08:37:10",1
"23/12/11","08:50",0.0,13.1,78.2,1019.4,327.6,3.6,5.9,319.3,0.14,9.4,10.7,"08:44:44",1
"23/12/11","09:00",0.0,13.5,77.1,1019.4,343.6,2.8,6.3,345.0,0.20,9.6,10.7,"08:56:26",1
"23/12/11","09:10",0.0,13.7,75.9,1020.1,332.6,2.8,4.7,323.9,0.23,9.6,10.8,"09:01:12",1
"23/12/11","09:20",0.0,14.3,74.7,1019.9,349.3,1.8,4.3,351.5,0.27,9.9,10.9,"09:13:44",1
"23/12/11","09:30",0.0,14.7,72.3,1020.1,347.2,2.0,4.2,348.1,0.33,9.8,10.9,"09:22:48",1
"23/12/11","09:40",0.0,15.1,69.7,1020.4,339.2,2.6,5.1,335.1,0.33,9.7,10.9,"09:33:04",1
"23/12/11","09:50",0.0,15.1,68.8,1019.7,344.1,2.5,5.2,345.5,0.33,9.5,10.7,"09:42:08",1
"23/12/11","10:00",0.0,15.2,68.5,1019.9,333.9,2.5,4.4,313.9,0.34,9.5,10.9,"09:58:24",1
"23/12/11","10:10",0.0,15.5,68.1,1019.4,335.8,2.1,4.1,329.6,0.36,9.7,11.1,"10:00:24",1
"23/12/11","10:20",0.0,15.7,66.9,1019.7,335.8,2.1,4.9,340.6,0.38,9.6,11.1,"10:14:08",1
"23/12/11","10:30",0.0,16.0,66.1,1019.7,352.3,1.8,4.0,337.4,0.39,9.7,11.0,"10:23:12",1
"23/12/11","10:40",0.0,16.2,64.7,1019.4,352.7,1.8,4.8,334.9,0.41,9.6,11.2,"10:34:56",1
"23/12/11","10:50",0.0,16.6,63.7,1018.5,13.2,1.3,4.0,335.5,0.42,9.7,11.4,"10:42:24",1
"23/12/11","11:00",0.0,16.5,62.5,1018.5,16.8,1.5,4.2,355.7,0.43,9.4,11.3,"10:53:28",1
"23/12/11","11:10",0.0,16.6,64.7,1018.2,328.3,2.5,5.1,335.7,0.44,10.0,11.4,"11:03:20",1
"23/12/11","11:20",0.0,17.0,62.6,1018.0,330.2,1.8,4.3,318.7,0.45,9.9,11.5,"11:12:24",1
"23/12/11","11:30",0.0,17.2,61.0,1018.0,344.4,1.8,4.3,358.5,0.45,9.7,11.6,"11:24:08",1
"23/12/11","11:40",0.0,17.0,62.3,1017.8,321.7,2.5,4.5,328.9,0.40,9.8,11.7,"11:36:24",1
"23/12/11","11:50",0.0,17.0,61.7,1017.3,333.0,2.7,4.2,338.4,0.44,9.6,11.5,"11:42:56",1
"23/12/11","12:00",0.0,17.5,60.6,1017.1,348.5,1.7,3.9,330.6,0.43,9.8,11.7,"11:52:48",1
"23/12/11","12:10",0.0,17.7,59.8,1017.3,349.6,2.0,4.2,341.6,0.46,9.8,11.8,"12:02:16",1
"23/12/11","12:20",0.0,17.7,59.2,1016.6,343.7,2.2,4.9,344.1,0.44,9.7,12.0,"12:17:20",1
"23/12/11","12:30",0.0,17.7,59.1,1016.4,325.7,2.2,3.7,338.4,0.41,9.7,12.1,"12:23:04",1
"23/12/11","12:40",0.0,17.9,58.8,1016.4,355.6,1.7,4.1,346.3,0.42,9.8,12.3,"12:33:04",1
"23/12/11","12:50",0.0,17.8,59.0,1016.4,337.0,2.1,3.9,332.5,0.41,9.7,12.1,"12:45:20",1
"23/12/11","13:00",0.0,18.0,59.5,1016.1,320.6,2.3,4.2,317.9,0.40,10.0,12.3,"12:55:44",1
"23/12/11","13:10",0.0,18.2,58.5,1016.1,317.2,2.1,3.9,324.7,0.39,10.0,12.3,"13:03:36",1
"23/12/11","13:20",0.0,18.2,57.8,1015.2,317.9,1.7,4.2,338.8,0.32,9.8,12.4,"13:10:16",1
"23/12/11","13:30",0.0,18.1,57.4,1015.2,335.6,1.5,3.4,344.7,0.28,9.6,12.6,"13:25:44",1
"23/12/11","13:40",0.0,18.5,56.9,1014.9,312.4,1.1,2.1,334.7,0.30,9.8,12.6,"13:33:36",1
"23/12/11","13:50",0.0,18.2,56.6,1014.9,277.9,1.5,4.0,338.6,0.24,9.5,12.7,"13:43:36",1
"23/12/11","14:00",0.0,18.4,57.4,1014.7,278.9,1.8,3.9,244.1,0.38,9.9,12.6,"13:58:00",1
"23/12/11","14:10",0.0,18.0,58.3,1014.7,254.8,2.3,4.4,245.8,0.35,9.7,12.9,"14:04:32",1
"23/12/11","14:20",0.0,17.8,59.0,1014.5,246.2,2.8,5.5,240.4,0.30,9.7,13.0,"14:16:08",1
"23/12/11","14:30",0.0,17.6,60.6,1014.5,245.8,2.2,3.7,235.1,0.26,9.9,13.0,"14:20:56",1
"23/12/11","14:40",0.0,17.3,61.1,1014.2,256.4,1.8,4.0,223.0,0.15,9.8,13.0,"14:30:32",1
"23/12/11","14:50",0.0,17.2,61.8,1013.8,260.4,1.5,2.7,227.3,0.11,9.9,12.9,"14:45:20",1
"23/12/11","15:00",0.0,17.1,61.8,1013.5,304.0,1.7,3.6,245.0,0.12,9.8,13.0,"14:53:04",1
"23/12/11","15:10",0.0,17.1,61.3,1013.5,318.6,0.8,1.8,347.1,0.07,9.6,13.1,"15:00:32",1
"23/12/11","15:20",0.0,17.0,61.7,1013.5,331.6,1.2,3.3,342.2,0.04,9.6,13.1,"15:16:40",1
"23/12/11","15:30",0.0,16.8,62.6,1013.5,55.1,0.8,2.2,116.9,0.03,9.7,13.0,"15:28:16",1
"23/12/11","15:40",0.0,16.5,63.4,1013.3,75.8,0.7,1.8,47.9,0.04,9.6,13.1,"15:33:36",1
"23/12/11","15:50",0.0,16.2,64.4,1013.3,119.9,1.0,3.7,113.2,0.02,9.5,13.0,"15:45:36",1
"23/12/11","16:00",0.0,16.0,65.3,1013.3,138.3,1.0,1.8,100.4,0.01,9.5,12.9,"15:55:04",1
"23/12/11","16:10",0.0,15.8,65.9,1013.5,145.1,0.8,1.8,119.6,0.00,9.5,13.0,"16:05:28",1
"23/12/11","16:20",0.0,15.6,65.6,1013.8,109.4,1.2,2.9,123.3,0.00,9.2,13.0,"16:17:14",1
"23/12/11","16:30",0.0,15.5,64.8,1013.8,97.8,1.0,3.1,103.2,0.00,9.0,12.9,"16:22:42",1
"23/12/11","16:40",0.0,15.4,64.4,1013.8,27.5,0.6,1.4,119.2,0.00,8.8,13.0,"16:30:26",1
"23/12/11","16:50",0.0,15.3,64.8,1014.5,300.3,1.0,1.6,278.6,0.00,8.8,13.0,"16:49:40",1
"23/12/11","17:00",0.0,14.9,69.0,1014.7,304.6,2.0,3.1,331.1,0.00,9.3,13.1,"16:58:56",1
"23/12/11","17:10",0.0,14.4,70.8,1014.9,309.6,2.2,3.6,317.1,0.00,9.2,12.8,"17:00:44",1
"23/12/11","17:20",0.0,14.3,71.9,1014.5,315.9,1.7,3.6,318.9,0.00,9.3,12.9,"17:12:24",1
"23/12/11","17:30",0.0,14.2,72.9,1014.0,298.4,1.2,1.9,329.0,0.00,9.5,12.7,"17:23:42",1
"23/12/11","17:40",0.2,13.8,73.8,1013.8,294.3,1.1,1.9,262.7,0.00,9.3,12.7,"17:30:42",1
"23/12/11","17:50",0.4,13.6,75.2,1013.5,301.9,1.0,1.4,323.5,0.00,9.3,12.8,"17:40:16",1
"23/12/11","18:00",0.2,13.4,78.0,1012.8,315.4,1.5,2.1,321.5,0.00,9.7,12.8,"17:59:04",1
"23/12/11","18:10",0.2,13.1,82.0,1013.5,294.2,1.6,2.4,315.7,0.00,10.1,12.8,"18:02:08",1
"23/12/11","18:20",0.2,12.9,84.7,1013.3,303.7,1.6,3.1,338.5,0.00,10.4,12.8,"18:18:24",1
"23/12/11","18:30",0.0,12.6,86.7,1013.3,302.4,1.7,3.1,324.4,0.00,10.5,12.7,"18:26:32",1
"23/12/11","18:40",0.0,12.4,88.0,1013.0,313.3,1.6,2.6,317.8,0.00,10.5,12.8,"18:36:48",1
"23/12/11","18:50",0.0,12.3,89.1,1013.0,293.3,1.0,2.2,328.1,0.00,10.6,12.6,"18:43:52",1
"23/12/11","19:00",0.0,12.3,89.9,1012.8,302.0,1.5,2.5,321.8,0.00,10.7,12.7,"18:55:28",1
"23/12/11","19:10",0.0,12.3,90.7,1013.3,275.6,1.5,2.6,266.2,0.00,10.9,12.6,"19:03:12",1
"23/12/11","19:20",0.2,12.2,91.3,1013.3,306.9,1.8,3.4,321.0,0.00,10.9,12.6,"19:13:20",1
"23/12/11","19:30",0.2,12.2,91.8,1013.3,294.3,1.6,2.2,330.5,0.00,10.9,12.6,"19:20:24",1
"23/12/11","19:40",0.4,12.1,92.2,1013.3,289.6,1.3,2.2,323.5,0.00,10.9,12.5,"19:31:04",1
"23/12/11","19:50",0.6,12.0,92.5,1012.3,300.7,1.5,2.2,322.2,0.00,10.9,12.5,"19:42:58",1
"23/12/11","20:00",0.4,11.9,92.9,1012.6,288.1,1.5,2.2,315.0,0.00,10.8,12.5,"19:59:52",1
"23/12/11","20:10",0.4,11.9,93.2,1012.8,303.2,1.8,2.7,330.9,0.00,10.9,12.6,"20:09:04",1
"23/12/11","20:20",0.2,11.9,93.5,1012.8,302.7,1.6,2.5,324.1,0.00,10.9,12.5,"20:17:44",1
"23/12/11","20:30",0.2,11.8,93.7,1012.6,307.7,1.7,2.2,325.2,0.00,10.9,12.5,"20:28:32",1
"23/12/11","20:40",0.0,11.8,93.9,1012.3,315.8,1.8,2.5,331.6,0.00,10.9,12.5,"20:38:00",1
"23/12/11","20:50",0.0,11.7,94.2,1012.3,293.1,1.5,2.4,323.8,0.00,10.8,12.4,"20:47:52",1
"23/12/11","21:00",0.0,11.7,94.4,1012.1,296.3,1.5,2.1,309.0,0.00,10.9,12.4,"20:54:32",1
"23/12/11","21:10",0.0,11.7,94.6,1011.6,312.2,1.7,2.2,315.6,0.00,10.9,12.5,"21:02:08",1
"23/12/11","21:20",0.0,11.6,94.8,1011.6,287.2,1.3,1.7,320.1,0.00,10.8,12.5,"21:16:24",1
"23/12/11","21:30",0.0,11.6,94.9,1011.6,276.2,1.1,1.4,300.1,0.00,10.9,12.6,"21:20:56",1
"23/12/11","21:40",0.2,11.7,95.1,1011.2,289.3,1.3,2.0,286.7,0.00,11.0,12.4,"21:37:20",1
"23/12/11","21:50",0.2,11.7,95.3,1010.7,285.9,1.3,2.4,309.9,0.00,11.0,12.3,"21:45:28",1
"23/12/11","22:00",0.0,11.8,95.4,1010.4,277.8,1.2,1.8,250.7,0.00,11.1,12.4,"21:56:48",1
"23/12/11","22:10",0.2,11.8,95.5,1010.7,294.9,1.3,2.0,327.7,0.00,11.1,12.4,"22:08:56",1
"23/12/11","22:20",0.6,11.9,95.7,1010.7,301.1,1.1,1.9,266.4,0.00,11.3,12.3,"22:19:20",1
"23/12/11","22:30",0.6,11.9,95.8,1010.4,300.9,1.5,2.7,317.1,0.00,11.3,12.3,"22:28:36",1
"23/12/11","22:40",0.4,11.9,95.9,1009.5,283.1,1.0,2.2,319.0,0.00,11.3,12.4,"22:30:08",1
"23/12/11","22:50",0.2,12.0,96.0,1009.7,279.0,1.7,2.5,256.3,0.00,11.4,12.4,"22:48:58",1
"23/12/11","23:00",0.2,12.0,96.1,1009.7,284.5,1.3,2.6,265.8,0.00,11.4,12.1,"22:58:40",1
"23/12/11","23:10",0.0,12.0,96.2,1009.5,294.0,1.5,2.4,276.2,0.00,11.5,12.2,"23:00:48",1
"23/12/11","23:20",0.2,12.0,96.4,1009.3,303.7,1.7,2.4,308.2,0.00,11.5,12.3,"23:11:36",1
"23/12/11","23:30",0.0,12.0,96.5,1008.6,286.3,1.3,2.2,304.2,0.00,11.5,12.2,"23:26:16",1
"23/12/11","23:40",0.2,12.1,96.6,1008.3,289.1,1.7,2.6,327.4,0.00,11.6,12.2,"23:39:36",1
"23/12/11","23:50",0.0,12.0,96.7,1008.3,320.7,1.5,2.7,314.9,0.00,11.5,12.2,"23:42:16",1
"23/12/11","24:00",0.2,12.0,96.7,1008.1,295.0,1.2,2.2,309.5,0.00,11.5,12.2,"23:50:08",1
